Probability
0 1 1 1 0 0 0 0 0 2 7 12 13 17 22 26 29 30 30 35 43 47 50 55 58 58 59 59 57 56 54 51 51 52 50 45 40 41 45 46 44 40 35 32
0 0 1 1 1 0 0 0 0 2 7 12 14 18 24 29 33 34 33 35 41 45 49 55 56 56 58 58 57 56 54 52 52 54 53 50 47 47 48 47 44 39 34 30
0 0 0 0 1 1 1 2 2 5 10 13 17 23 29 33 36 38 36 36 39 41 47 53 55 52 52 54 56 56 53 52 52 53 54 53 52 51 50 48 44 40 36 33
0 0 0 0 1 2 2 4 7 10 13 15 21 29 34 36 39 42 42 40 39 38 43 49 51 47 45 48 52 54 52 51 51 51 52 52 50 49 49 47 44 40 37 37
0 0 0 1 2 4 5 8 13 16 17 18 24 31 36 40 45 48 47 43 39 36 39 47 49 46 44 46 50 50 50 51 51 50 50 49 47 47 46 43 39 36 35 35
0 0 1 3 4 4 6 12 21 25 25 26 30 36 40 43 49 50 47 42 40 37 40 46 50 49 47 47 48 48 47 49 50 49 47 46 45 44 42 38 33 32 31 30
0 1 4 6 8 10 14 23 30 34 35 38 41 43 44 46 50 50 45 41 40 41 43 45 45 47 48 47 47 47 47 47 47 46 43 42 42 41 38 34 32 31 29 26
2 4 10 16 19 23 31 35 36 36 38 41 42 42 43 46 48 47 43 41 40 42 43 40 38 42 44 44 45 47 47 46 45 43 39 37 37 36 34 31 29 28 25 22
10 12 18 24 28 33 37 37 34 33 33 35 36 36 39 43 44 42 42 41 38 36 36 34 33 36 40 41 44 46 45 43 42 41 38 35 33 31 28 25 24 22 20 18
16 17 19 23 26 29 29 28 28 27 27 29 31 32 36 40 41 40 41 40 36 31 30 31 32 34 36 40 44 45 43 41 40 39 35 31 27 23 19 18 18 17 16 16
16 15 15 16 18 20 22 21 22 24 25 26 28 29 32 36 38 38 38 37 34 31 30 30 32 35 36 38 43 42 39 38 38 35 29 23 17 12 10 9 10 11 12 13
15 14 13 14 14 15 17 19 19 21 23 23 23 23 26 30 32 32 31 30 30 30 30 30 32 33 34 37 39 37 34 34 33 28 22 16 10 6 3 2 2 4 6 7
12 12 12 12 12 12 15 19 19 20 21 20 18 17 19 23 25 25 23 22 25 27 29 30 30 29 29 34 36 33 31 29 27 23 18 14 10 7 4 2 1 1 1 2
8 9 10 10 11 12 15 17 18 19 20 19 17 16 18 20 22 20 18 17 20 24 28 29 27 25 26 31 34 32 28 25 24 22 18 15 13 10 7 6 3 1 1 0
6 8 9 9 9 10 13 14 15 17 18 18 16 16 18 20 21 19 17 16 18 23 26 27 25 24 27 31 32 30 26 23 21 20 17 14 12 9 8 7 5 3 2 1
7 9 10 9 8 9 11 12 13 14 14 13 12 13 15 18 19 18 17 17 20 24 25 25 23 24 27 29 29 27 23 20 19 17 15 13 11 9 7 6 5 4 3 2
7 9 8 7 8 9 11 11 11 11 10 8 8 9 13 15 17 16 15 16 19 22 22 21 21 23 25 26 26 23 19 17 15 14 14 13 12 11 9 7 5 3 2 1
5 5 4 4 6 8 8 7 7 7 7 6 6 7 10 13 15 15 13 14 16 17 17 17 17 19 22 22 22 20 17 14 13 12 12 11 11 10 9 6 4 2 1 0
3 3 2 2 2 4 3 3 4 6 6 6 5 5 7 11 13 14 14 14 14 14 14 13 13 16 18 16 16 18 16 13 11 10 9 8 7 7 5 3 1 1 0 0
5 4 2 0 0 1 1 2 4 6 6 6 5 5 6 9 12 13 15 15 13 12 11 9 9 12 13 11 11 14 15 13 10 9 8 7 6 5 3 1 0 0 0 0
6 5 2 0 1 1 2 3 5 6 6 6 6 6 7 9 11 13 14 13 11 8 6 5 6 9 10 9 9 11 12 11 9 8 7 6 5 4 2 0 0 0 0 0
4 3 1 0 2 4 5 6 6 6 6 6 6 6 7 10 11 12 12 10 7 5 4 4 3 5 6 6 7 9 9 8 7 6 5 4 3 2 0 0 0 0 0 0
5 3 2 1 2 4 7 6 5 4 5 6 5 5 7 10 11 10 9 7 4 2 2 2 1 1 3 5 7 7 7 6 5 4 3 2 1 0 0 0 0 0 0 0
8 7 5 3 3 4 6 5 4 3 3 3 4 5 6 7 8 6 4 2 1 1 1 1 0 0 2 5 6 6 5 5 3 2 1 1 0 0 0 0 0 0 0 0
8 7 5 4 4 4 4 3 2 2 1 1 2 3 3 3 4 3 2 0 0 0 0 0 0 0 2 4 4 4 3 2 1 1 0 0 0 0 0 0 0 0 0 0
5 4 2 3 4 5 3 1 1 1 0 0 1 2 2 2 2 2 2 0 0 0 0 0 0 0 1 1 1 1 1 0 0 0 0 0 0 0 0 0 0 0 0 0
3 2 1 2 4 4 3 1 0 0 0 0 1 2 3 3 1 1 1 0 0 0 0 0 0 0 0 0 0 0 0 0 0 0 0 0 0 0 0 0 0 0 0 0
Wind_Speed
11 10 8 11 14 15 14 13 11 7 6 5 5 6 7 7 6 6 5 3 5 4 4 4 4 4 3 4 4 5 6 5 5 4 4 4 4 3 3 3 4 3 3 2
12 11 11 11 13 14 15 14 13 10 7 3 1 3 5 6 6 5 4 3 4 5 4 4 4 4 3 4 4 4 5 5 4 4 4 4 3 3 3 3 3 3 3 2
10 11 12 14 12 13 12 12 12 10 5 5 4 2 4 4 5 5 4 3 4 4 4 4 3 3 3 3 4 4 4 4 4 4 3 3 3 3 3 3 3 2 2 2
10 11 14 10 10 11 11 11 10 5 4 3 4 4 4 3 4 5 5 4 4 3 4 4 3 3 2 3 4 3 3 3 3 3 3 3 3 3 3 3 3 2 3 2
9 11 11 9 8 8 9 8 7 5 4 4 4 4 4 4 5 6 5 4 4 3 3 3 3 2 2 3 3 3 3 3 3 3 4 3 3 3 3 3 3 3 3 3
10 11 10 6 5 7 8 7 3 3 3 3 4 4 3 4 5 6 5 5 4 4 4 4 3 3 2 2 3 3 2 2 3 4 4 4 3 3 3 3 3 3 4 4
13 11 7 4 5 6 8 3 1 1 2 2 2 2 5 6 7 7 6 6 5 4 4 4 3 3 2 2 3 2 3 3 4 4 4 4 4 3 4 4 4 4 5 5
12 11 7 3 4 2 2 3 2 3 3 3 4 5 7 7 6 6 5 5 4 4 4 4 4 3 3 3 2 3 3 4 4 4 4 5 5 4 4 4 4 4 5 5
3 3 1 3 3 4 3 3 3 2 2 3 4 5 6 6 6 5 4 4 4 4 4 4 3 3 3 2 2 3 4 4 5 5 4 5 4 4 3 3 3 3 4 4
2 1 0 3 4 2 3 3 3 2 3 3 5 6 6 5 4 4 4 4 3 4 4 3 3 4 3 3 3 4 5 5 5 6 6 6 5 4 4 3 2 3 3 4
4 4 1 1 2 2 2 2 2 3 4 4 4 5 5 4 4 3 3 4 3 4 4 4 3 3 3 3 3 4 5 5 6 6 7 7 8 7 6 6 4 3 3 3
4 3 2 1 1 1 1 1 2 3 3 3 3 2 4 4 3 3 3 3 3 4 4 4 3 3 3 3 3 5 5 5 5 6 6 7 8 8 14 11 13 13 10 7
1 1 1 1 1 1 1 0 1 2 3 3 3 3 4 4 3 3 3 3 3 3 4 4 4 4 3 4 4 5 5 5 4 5 6 6 6 7 7 8 12 13 11 10
1 2 2 2 2 1 1 1 2 2 3 2 2 2 4 4 3 3 3 3 3 3 3 3 4 4 3 3 4 5 5 5 5 5 5 5 6 6 6 6 6 6 7 8
3 3 3 3 2 2 2 3 3 3 3 2 2 3 3 3 3 3 2 3 3 4 4 4 4 4 3 3 5 5 5 4 4 5 5 5 5 5 6 7 6 6 5 4
3 3 3 4 3 4 3 3 3 3 2 2 2 2 3 3 3 3 2 2 3 4 4 4 4 3 3 4 4 4 4 6 5 5 5 5 5 5 6 6 6 6 5 4
4 4 4 4 4 3 3 3 2 3 2 2 3 2 2 3 3 3 3 3 4 4 4 4 4 3 3 4 4 4 5 6 6 5 5 5 5 5 5 5 5 5 5 5
4 5 5 4 4 3 3 3 3 3 3 3 4 3 3 3 3 3 3 4 5 4 4 4 4 3 3 4 4 4 5 5 4 4 5 5 5 5 5 6 6 6 6 6
4 4 4 4 4 4 4 4 4 4 4 4 4 4 3 3 3 3 4 4 5 4 4 5 4 4 5 5 4 4 5 6 5 5 6 6 5 5 5 5 6 6 6 6
2 2 3 4 4 4 5 5 5 5 5 5 5 4 4 3 3 4 5 4 3 4 5 5 4 4 5 5 4 4 5 6 6 6 5 5 5 5 5 6 6 7 6 6
1 2 2 2 3 4 5 6 6 6 6 6 6 6 5 4 4 4 5 5 5 4 5 5 3 4 4 4 4 4 5 5 6 6 5 5 6 6 6 6 6 6 6 5
2 2 2 2 3 4 4 5 6 6 6 6 6 6 6 6 5 5 5 4 5 4 4 4 4 5 5 4 4 5 5 5 5 5 5 5 5 5 5 6 6 6 5 5
1 2 2 3 4 4 4 5 5 6 6 6 7 7 6 5 4 5 5 4 4 4 4 5 6 6 5 4 4 5 5 5 5 5 5 5 5 5 5 6 5 6 5 5
2 3 3 3 4 5 5 5 6 5 6 6 6 6 6 5 4 4 5 6 6 7 5 6 7 5 3 3 4 5 5 5 5 5 5 5 4 5 5 5 5 5 5 6
3 4 4 4 4 4 5 6 7 6 6 6 7 6 4 4 5 5 6 7 8 7 7 6 5 4 3 4 5 5 5 4 5 5 4 4 4 5 5 5 5 5 5 4
3 3 4 4 4 4 4 5 5 5 5 6 5 5 5 5 6 6 5 7 8 6 5 5 4 4 4 5 6 5 5 6 5 4 5 4 5 5 5 5 5 4 4 5
4 4 4 4 4 4 4 4 5 5 5 6 6 5 5 5 6 6 7 6 5 5 4 4 4 4 5 5 5 5 4 4 4 4 4 4 4 4 4 5 4 4 4 4
Wind_Direction
264 270 248 221 220 223 226 236 243 226 206 185 164 146 130 122 116 111 103 97 105 107 107 111 112 114 123 144 146 153 159 174 179 177 176 182 188 182 178 183 192 180 181 191
254 259 252 245 225 222 228 234 240 239 224 173 120 132 119 122 125 117 108 93 99 110 116 119 117 125 130 131 139 148 160 168 163 167 169 171 179 179 171 173 172 166 172 174
249 238 239 240 236 231 231 236 242 239 226 179 167 154 116 119 127 122 113 102 94 94 94 100 105 115 131 132 135 145 157 160 151 152 155 158 172 169 164 157 152 148 143 146
249 244 242 240 236 234 232 238 245 238 207 197 155 131 116 120 126 126 123 116 104 97 98 107 109 119 130 132 129 129 135 140 133 139 145 144 140 139 138 135 134 138 132 130
251 245 244 242 236 234 230 232 230 225 209 203 174 150 137 121 118 116 112 106 105 100 95 90 90 99 112 118 122 129 136 140 140 141 138 135 135 128 126 127 130 131 117 111
249 248 244 232 239 241 232 226 218 207 190 199 202 204 143 108 99 96 97 97 89 84 83 78 62 64 88 109 107 115 129 128 125 126 129 129 123 118 116 115 116 112 107 99
241 248 249 290 274 251 227 200 50 145 134 155 146 104 94 93 87 83 79 78 74 70 76 74 65 68 81 92 91 102 109 116 119 121 124 122 120 116 113 113 110 102 101 93
233 242 246 332 278 273 62 54 60 68 76 83 93 111 106 97 89 86 88 84 77 72 70 64 59 69 81 81 85 105 112 119 118 116 124 123 117 114 117 122 120 114 110 101
251 240 79 60 72 57 45 51 46 71 103 94 108 117 107 102 95 88 87 81 80 80 79 70 64 71 80 71 84 111 113 114 113 107 91 98 108 112 114 115 119 117 113 107
253 205 72 94 97 69 38 39 21 64 95 99 120 120 106 95 87 78 75 76 79 85 83 68 61 67 67 65 80 107 114 111 106 101 89 75 66 63 64 50 81 105 108 110
223 215 218 52 72 77 56 31 35 48 78 91 106 120 114 106 96 81 68 64 68 78 79 75 74 78 75 81 102 112 114 113 108 103 99 84 69 49 60 48 35 67 85 89
231 204 181 154 100 126 177 72 64 85 89 95 105 134 124 116 105 96 86 73 68 80 82 81 76 74 71 82 100 111 115 115 115 114 111 110 103 81 55 60 57 58 65 84
245 159 120 174 220 205 253 36 91 125 122 116 133 147 129 122 113 107 104 101 94 91 90 84 81 79 78 88 98 102 110 117 119 120 123 123 120 115 104 73 62 58 61 74
158 142 188 210 203 194 204 138 129 113 106 109 125 132 131 131 122 112 108 115 111 104 101 90 83 79 78 93 105 109 111 109 115 119 122 122 119 121 121 118 105 83 62 67
245 218 208 201 201 210 200 171 151 131 123 130 150 150 142 128 120 121 115 107 102 102 97 93 89 81 79 93 109 115 117 118 116 117 119 117 118 118 117 115 113 112 110 87
253 236 223 197 196 206 195 183 161 152 157 151 157 151 142 126 117 125 113 104 105 99 94 94 98 101 100 101 105 109 105 105 110 116 116 115 118 119 118 119 116 114 111 110
236 231 232 214 201 205 193 186 168 158 163 162 150 151 151 140 136 131 119 107 98 97 98 98 101 103 108 111 110 109 109 104 104 114 114 115 114 111 111 112 109 108 102 96
250 250 241 221 212 199 188 188 178 166 168 162 149 157 172 163 153 141 129 122 116 109 110 112 111 110 106 101 100 107 113 112 109 106 105 105 108 110 113 113 113 109 108 105
241 235 239 228 216 200 189 177 173 169 161 158 158 166 177 179 163 153 144 135 128 124 106 98 104 110 103 99 105 110 114 115 110 102 103 109 112 110 111 114 114 112 110 107
230 235 227 220 208 191 174 167 166 164 161 161 165 170 174 173 165 152 135 126 114 105 111 108 109 102 103 103 98 104 105 109 112 114 117 117 112 111 110 107 104 101 98 97
230 242 225 212 177 161 158 163 166 166 169 170 167 163 155 152 154 147 137 123 105 106 113 113 108 105 102 102 103 102 104 109 110 111 111 106 105 105 103 101 101 101 102 102
202 199 192 159 142 143 151 157 159 161 158 154 152 149 146 142 136 122 106 110 115 114 126 115 104 95 95 103 104 102 105 108 107 105 102 102 102 105 106 107 107 105 103 100
145 145 136 133 136 140 139 140 144 146 146 145 146 146 141 136 137 131 121 119 117 109 104 97 102 103 96 107 113 116 114 111 107 106 107 108 110 113 113 112 110 108 108 108
105 112 119 125 128 130 129 130 127 123 123 125 130 132 133 131 117 109 113 113 107 110 104 103 104 101 106 122 117 109 106 106 107 108 111 115 116 113 110 111 112 113 113 112
112 117 119 125 123 118 119 121 119 121 124 120 120 121 119 110 111 110 110 115 120 121 114 110 112 117 120 111 106 103 103 102 105 107 111 114 112 108 107 109 110 113 113 110
102 107 105 104 103 113 126 127 124 124 121 116 112 108 103 104 110 116 120 123 120 117 119 125 128 126 114 102 98 98 105 114 116 113 108 105 105 106 108 110 112 109 108 107
100 99 104 104 103 106 107 111 114 114 115 117 110 102 105 109 113 117 117 119 121 118 113 114 114 111 108 105 104 103 101 101 103 108 110 106 104 105 110 112 110 111 112 111